Location: Newark
(49.8969°N, 3.3422°E)
Time: 23:01:35
(UTC+00:00)

Tiros 1 - Pass Details

Date: 21 January 2021
Orbit: 630 x 664 km, 48.4° (Epoch: 08 March)

Event Time Altitude Azimuth Distance (km) Brightness Sun altitude
Rises 18:18:25 0° 210° (SSW) 2,917 11.1 -18.2°
Reaches altitude 10° 18:21:08 10° 195° (SSW) 2,008 10.0 -18.6°
Maximum altitude 18:24:41 22° 144° (SE) 1,368 8.6 -19.2°
Enters shadow 18:24:55 22° 140° (SE) 1,371 8.5 -19.2°
